Orbital Elements at Epoch 2459000.5 (2020-May-31.0) TDB
Reference: JPL 39 (heliocentric ecliptic J2000)
Element | Value | Uncertainty (1-sigma) | Units |
e | .1982300840742263 | 3.5731e-08 | |
a | 2.202427803700019 | 4.6406e-09 | au |
q | 1.76584035500515 | 7.8861e-08 | au |
i | 2.197748683350392 | 4.1861e-06 | deg |
node | 359.6472263055394 | 7.7687e-05 | deg |
peri | 14.84844803688072 | 7.8117e-05 | deg |
M | 9.082695800123664 | 9.1195e-06 | deg |
tp | 2458970.379427893645 (2020-Apr-30.87942789) | 3.0194e-05 | TDB |
period | 1193.853256446181 3.27 | 3.7732e-06 1.033e-08 | d yr |
n | .3015445977603939 | 9.5305e-10 | deg/d |
Q | 2.639015252394887 | 5.5605e-09 | au |
|
| | Orbit Determination Parameters
Additional Information
|